Location: Favalello
(42.2939°N, 9.2706°E)
Time: 14:03:18
(UTC+00:00)

BREEZE-M DEB (TANK) - Pass Details

Date: 06 December 2019
Orbit: 348 x 16581 km, 49.4° (Epoch: 27 January)

Event Time Altitude Azimuth Distance (km) Brightness Sun altitude
Rises 17:16:04 0° 295° (WNW) 4,816 7.9 -15.3°
Reaches altitude 10° 17:20:35 10° 300° (WNW) 2,630 6.4 -16.1°
Maximum altitude 17:25:17 49° 16° (NNE) 612 2.3 -16.9°
Enters shadow 17:25:47 43° 52° (NE) 628 2.2 -17.0°
